Date String (YYYY-MM-DD hh:mm:ss) UTC,Instrument flags,Ambient pressure (hPa),Sample flow (lpm),Bypass flow (lpm),Sample temperature (°C),Ambient temperature (°C),ASC tube jacket temperature (°C),LED temperature (°C),Box temperature (°C),Sample RH (%),Span deviation,Mass concentration (μg/m³),Mass concentration (μg/m³),Mass concentration (μg/m³)
DateTimeUTC,F1_M11,P_M11,Q1_M11,Q2_M11,T1_M11,T2_M11,T3_M11,T4_M11,T5_M11,U1_M11,ZSPAN_M11,X0_M11,X2_M11,X1_M11
2021-10-02 16:00:00,,0833.4,4.99,0.00,30.6,26.6,00.0,39.9,31.7,18.7,0000.2,0015.44,0006.26,0005.29
2021-10-02 16:01:00,,0833.4,5.01,0.00,30.5,27.0,00.0,39.8,31.8,18.9,0000.2,0015.32,0006.28,0005.33
2021-10-02 16:02:00,,0833.4,5.00,0.00,30.4,27.5,00.0,39.7,31.8,18.8,-000.0,0014.31,0006.31,0005.35
2021-10-02 16:03:00,,0833.5,5.01,0.00,30.4,27.9,00.0,39.7,31.9,18.8,0000.1,0013.99,0006.31,0005.38
2021-10-02 16:04:00,,0833.4,5.00,0.00,30.4,28.2,00.0,39.7,31.9,18.8,0000.5,0013.75,0006.35,0005.41
2021-10-02 16:05:00,,0833.4,4.99,0.00,30.4,28.5,00.0,39.6,32.0,18.5,0000.9,0013.69,0006.29,0005.38
2021-10-02 16:06:00,,0833.5,5.00,0.00,30.4,28.7,00.0,39.6,32.0,18.8,0000.9,0013.69,0006.23,0005.32
2021-10-02 16:07:00,,0833.4,5.00,0.00,30.4,28.9,00.0,39.6,32.0,19.2,0000.8,0013.62,0006.21,0005.26
2021-10-02 16:08:00,,0833.4,4.98,0.00,30.4,29.1,00.0,39.6,32.1,19.2,0000.7,0014.35,0006.14,0005.20
2021-10-02 16:09:00,,0833.4,5.02,0.00,30.4,29.2,00.0,39.6,32.1,19.0,0000.8,0014.25,0006.10,0005.15
2021-10-02 16:10:00,,0833.5,5.00,0.00,30.4,29.3,00.0,39.5,32.1,19.4,0000.6,0015.27,0006.10,0005.11
2021-10-02 16:11:00,,0833.4,5.00,0.00,30.5,29.4,00.0,39.6,32.2,19.2,0000.5,0015.39,0006.12,0005.10
2021-10-02 16:12:00,,0833.4,5.00,0.00,30.5,29.4,00.0,39.6,32.2,18.9,0001.3,0015.75,0006.14,0005.09
2021-10-02 16:13:00,,0833.4,4.99,0.00,30.5,29.5,00.0,39.6,32.2,19.2,0001.7,0015.33,0006.14,0005.07
2021-10-02 16:14:00,,0833.4,5.00,0.00,30.5,29.6,00.0,39.6,32.3,19.1,0001.4,0015.84,0006.16,0005.05
2021-10-02 16:15:00,,0833.4,4.99,0.00,30.5,29.6,00.0,39.6,32.3,19.1,0001.2,0015.71,0006.16,0005.04
2021-10-02 16:16:00,,0833.5,5.00,0.00,30.6,29.6,00.0,39.6,32.3,19.2,0001.1,0015.50,0006.12,0005.02
2021-10-02 16:17:00,,0833.4,5.01,0.00,30.6,29.7,00.0,39.6,32.3,19.2,0001.3,0015.38,0006.11,0005.03
2021-10-02 16:18:00,,0833.4,4.99,0.00,30.6,29.7,00.0,39.6,32.4,18.8,0001.4,0015.42,0006.13,0005.07
2021-10-02 16:19:00,,0833.5,5.00,0.00,30.6,29.8,00.0,39.6,32.4,18.8,0001.5,0015.59,0006.17,0005.08
2021-10-02 16:20:00,,0833.4,5.02,0.00,30.6,29.8,00.0,39.7,32.4,18.8,0001.7,0015.06,0006.13,0005.07
2021-10-02 16:21:00,,0833.5,4.99,0.00,30.6,29.8,00.0,39.7,32.4,18.5,0001.8,0014.27,0006.05,0005.05
2021-10-02 16:22:00,,0833.5,5.00,0.00,30.7,29.6,00.0,39.7,32.3,18.6,0002.2,0013.69,0006.00,0005.04
2021-10-02 16:23:00,,0833.4,5.00,0.00,30.6,27.8,00.0,39.7,31.9,18.9,0002.0,0013.62,0005.94,0005.02
2021-10-02 16:24:00,,0833.4,5.01,0.00,30.4,26.7,00.0,39.6,31.6,19.1,0001.8,0013.80,0005.94,0005.02
2021-10-02 16:25:00,,0833.4,4.98,0.00,30.3,27.0,00.0,39.6,31.7,19.2,0002.1,0013.46,0005.95,0005.03
2021-10-02 16:26:00,,0833.5,5.01,0.00,30.3,27.4,00.0,39.5,31.7,19.3,0002.4,0013.26,0005.94,0005.02
2021-10-02 16:27:00,,0833.4,5.00,0.00,30.2,27.8,00.0,39.5,31.8,19.0,0002.3,0013.50,0005.91,0005.00
2021-10-02 16:28:00,,0833.4,5.00,0.00,30.2,28.1,00.0,39.5,31.8,18.9,0002.6,0013.45,0005.88,0004.97
2021-10-02 16:29:00,,0833.4,4.98,0.00,30.2,28.4,00.0,39.4,31.9,18.9,0002.6,0013.37,0005.85,0004.92
2021-10-02 16:30:00,,0833.4,5.01,0.00,30.2,28.6,00.0,39.4,31.9,19.1,0002.6,0013.19,0005.79,0004.89
2021-10-02 16:31:00,,0833.5,4.99,0.00,30.3,28.8,00.0,39.4,32.0,18.8,0002.7,0013.15,0005.77,0004.86
2021-10-02 16:32:00,,0833.4,5.01,0.00,30.3,29.0,00.0,39.4,32.0,18.0,0002.9,0013.38,0005.71,0004.81
2021-10-02 16:33:00,,0833.5,5.01,0.00,30.3,29.1,00.0,39.4,32.0,17.9,0003.0,0013.19,0005.65,0004.76
2021-10-02 16:34:00,,0833.4,4.98,0.00,30.3,29.2,00.0,39.4,32.0,18.2,0003.3,0014.01,0005.59,0004.72
2021-10-02 16:35:00,,0833.4,5.01,0.00,30.4,29.3,00.0,39.4,32.1,17.9,0003.6,0014.55,0005.51,0004.67
2021-10-02 16:36:00,,0833.5,5.01,0.00,30.4,29.4,00.0,39.4,32.1,18.0,0003.4,0014.14,0005.38,0004.60
2021-10-02 16:37:00,,0833.4,4.98,0.00,30.4,29.4,00.0,39.4,32.1,18.0,0003.2,0013.83,0005.27,0004.56
2021-10-02 16:38:00,,0833.4,5.00,0.00,30.4,29.5,00.0,39.4,32.2,18.5,0003.3,0013.96,0005.24,0004.53
2021-10-02 16:39:00,,0833.4,5.01,0.00,30.5,29.5,00.0,39.4,32.2,18.8,0003.1,0013.92,0005.25,0004.51
2021-10-02 16:40:00,,0833.4,5.00,0.00,30.5,29.6,00.0,39.4,32.2,18.7,0003.0,0013.90,0005.20,0004.48
2021-10-02 16:41:00,,0833.4,5.00,0.00,30.5,29.6,00.0,39.5,32.3,18.0,0003.0,0013.21,0005.12,0004.45
2021-10-02 16:42:00,,0833.4,5.01,0.00,30.5,29.6,00.0,39.5,32.3,17.9,0002.8,0013.02,0005.13,0004.44
2021-10-02 16:43:00,,0833.4,5.01,0.00,30.5,28.1,00.0,39.5,31.9,17.9,0002.6,0012.97,0005.15,0004.45
2021-10-02 16:44:00,,0833.3,5.01,0.00,30.3,26.6,00.0,39.5,31.6,18.2,0002.4,0013.11,0005.13,0004.46
2021-10-02 16:45:00,,0833.3,5.00,0.00,30.2,26.7,00.0,39.4,31.5,18.7,0001.6,0011.67,0005.13,0004.46
2021-10-02 16:46:00,,0833.3,5.00,0.00,30.1,27.1,00.0,39.4,31.5,18.8,0001.1,0011.05,0005.15,0004.45
2021-10-02 16:47:00,,0833.3,5.00,0.00,30.1,27.5,00.0,39.3,31.6,18.0,0001.2,0011.68,0005.19,0004.44
2021-10-02 16:48:00,,0833.3,5.00,0.00,30.1,27.9,00.0,39.3,31.7,18.0,0001.4,0012.85,0005.18,0004.43
2021-10-02 16:49:00,,0833.4,5.00,0.00,30.1,28.2,00.0,39.3,31.7,18.0,0001.2,0012.38,0005.16,0004.42
2021-10-02 16:50:00,,0833.4,4.99,0.00,30.1,28.5,00.0,39.3,31.8,17.9,0001.1,0012.18,0005.08,0004.41
2021-10-02 16:51:00,,0833.4,5.01,0.00,30.1,28.7,00.0,39.3,31.9,17.6,0001.0,0012.16,0005.12,0004.43
2021-10-02 16:52:00,,0833.3,4.99,0.00,30.2,28.9,00.0,39.3,31.9,17.8,0000.8,0012.15,0005.15,0004.43
2021-10-02 16:53:00,,0833.3,4.99,0.00,30.2,29.0,00.0,39.3,31.9,17.7,0000.9,0011.95,0005.12,0004.42
2021-10-02 16:54:00,,0833.3,5.01,0.00,30.2,29.1,00.0,39.3,32.0,17.4,0001.0,0011.64,0005.08,0004.40
2021-10-02 16:55:00,,0833.3,5.01,0.00,30.2,29.2,00.0,39.3,32.0,17.5,0001.0,0011.16,0005.09,0004.37
2021-10-02 16:56:00,,0833.3,4.99,0.00,30.3,29.3,00.0,39.3,32.1,17.8,0001.2,0011.26,0005.12,0004.37
2021-10-02 16:57:00,,0833.3,4.99,0.00,30.3,29.4,00.0,39.3,32.1,17.5,0001.3,0011.20,0005.14,0004.37
2021-10-02 16:58:00,,0833.4,5.00,0.00,30.3,29.4,00.0,39.3,32.1,17.5,0001.8,0010.53,0005.12,0004.39
2021-10-02 16:59:00,,0833.3,5.00,0.00,30.4,29.5,00.0,39.3,32.1,17.4,0002.0,0009.45,0005.15,0004.41
